Time,TemperatureF,DewpointF,PressureIn,WindDirection,WindDirectionDegrees,WindSpeedMPH,WindSpeedGustMPH,Humidity,HourlyPrecipIn,Conditions,Clouds,dailyrainin,SoftwareType,DateUTC
2013-04-02 00:02:00,40.0,36.0,29.93,West,271,2.0,8.0,87,0.00,,,0.00,,2013-04-02 06:02:00,
2013-04-02 00:11:00,40.0,36.0,29.93,West,271,2.0,8.0,87,0.00,,,0.00,,2013-04-02 06:11:00,
2013-04-02 00:21:00,40.0,37.0,29.93,West,281,4.0,7.0,88,0.00,,,0.00,,2013-04-02 06:21:00,
2013-04-02 00:31:00,40.0,37.0,29.93,West,271,2.0,7.0,88,0.00,,,0.00,,2013-04-02 06:31:00,
2013-04-02 00:42:00,40.0,37.0,29.93,West,271,2.0,7.0,88,0.00,,,0.00,,2013-04-02 06:42:00,
2013-04-02 00:52:00,40.0,37.0,29.94,West,271,1.0,4.0,89,0.00,,,0.00,,2013-04-02 06:52:00,
2013-04-02 01:01:00,40.0,37.0,29.94,West,272,3.0,5.0,88,0.00,,,0.00,,2013-04-02 07:01:00,
2013-04-02 01:11:00,40.0,37.0,29.94,West,272,3.0,5.0,88,0.00,,,0.00,,2013-04-02 07:11:00,
2013-04-02 01:21:00,40.0,36.0,29.94,West,273,1.0,3.0,84,0.00,,,0.00,,2013-04-02 07:21:00,
2013-04-02 01:31:00,40.0,36.0,29.95,WNW,286,4.0,7.0,84,0.00,,,0.00,,2013-04-02 07:31:00,
2013-04-02 01:41:00,40.0,36.0,29.95,WNW,286,4.0,7.0,84,0.00,,,0.00,,2013-04-02 07:41:00,
2013-04-02 01:52:00,41.0,36.0,29.95,West,277,7.0,10.0,82,0.00,,,0.00,,2013-04-02 07:52:00,
2013-04-02 02:01:00,41.0,36.0,29.95,West,274,6.0,10.0,82,0.00,,,0.00,,2013-04-02 08:01:00,
2013-04-02 02:12:00,41.0,36.0,29.95,West,274,6.0,10.0,82,0.00,,,0.00,,2013-04-02 08:12:00,
2013-04-02 02:22:00,42.0,37.0,29.96,West,262,5.0,11.0,82,0.00,,,0.00,,2013-04-02 08:22:00,
2013-04-02 02:31:00,41.0,36.0,29.96,WSW,241,4.0,10.0,83,0.00,,,0.00,,2013-04-02 08:31:00,
2013-04-02 02:42:00,41.0,36.0,29.96,WSW,241,4.0,10.0,83,0.00,,,0.00,,2013-04-02 08:42:00,
2013-04-02 02:52:00,41.0,37.0,29.96,WSW,238,4.0,8.0,84,0.00,,,0.00,,2013-04-02 08:52:00,
2013-04-02 03:01:00,41.0,37.0,29.96,WSW,255,2.0,5.0,85,0.00,,,0.00,,2013-04-02 09:01:00,
2013-04-02 03:11:00,41.0,37.0,29.96,WSW,255,2.0,5.0,85,0.00,,,0.00,,2013-04-02 09:11:00,
2013-04-02 03:22:00,41.0,37.0,29.96,WSW,255,2.0,4.0,86,0.00,,,0.00,,2013-04-02 09:22:00,
2013-04-02 03:32:00,41.0,37.0,29.96,WSW,248,3.0,5.0,87,0.00,,,0.00,,2013-04-02 09:32:00,
2013-04-02 03:42:00,41.0,37.0,29.96,WSW,248,3.0,5.0,87,0.00,,,0.00,,2013-04-02 09:42:00,
2013-04-02 03:52:00,41.0,37.0,29.95,WSW,245,4.0,6.0,87,0.00,,,0.00,,2013-04-02 09:52:00,
2013-04-02 04:02:00,41.0,37.0,29.96,WSW,245,2.0,4.0,87,0.00,,,0.00,,2013-04-02 10:02:00,
2013-04-02 04:12:00,41.0,37.0,29.96,WSW,245,2.0,4.0,87,0.00,,,0.00,,2013-04-02 10:12:00,
2013-04-02 04:32:00,41.0,37.0,29.96,WSW,245,1.0,3.0,87,0.00,,,0.00,,2013-04-02 10:32:00,
2013-04-02 04:42:00,41.0,37.0,29.96,WSW,245,1.0,3.0,87,0.00,,,0.00,,2013-04-02 10:42:00,
2013-04-02 04:52:00,41.0,37.0,29.96,WSW,245,1.0,3.0,87,0.00,,,0.00,,2013-04-02 10:52:00,
2013-04-02 05:02:00,41.0,37.0,29.96,WSW,245,1.0,3.0,86,0.00,,,0.00,,2013-04-02 11:02:00,
2013-04-02 05:11:00,41.0,37.0,29.96,WSW,245,1.0,3.0,86,0.00,,,0.00,,2013-04-02 11:11:00,
2013-04-02 05:22:00,41.0,37.0,29.96,WSW,245,1.0,4.0,86,0.00,,,0.00,,2013-04-02 11:22:00,
2013-04-02 05:32:00,41.0,37.0,29.96,WSW,248,3.0,4.0,86,0.00,,,0.00,,2013-04-02 11:32:00,
2013-04-02 05:42:00,41.0,37.0,29.96,WSW,248,3.0,4.0,86,0.00,,,0.00,,2013-04-02 11:42:00,
2013-04-02 05:52:00,41.0,37.0,29.96,WSW,249,1.0,2.0,86,0.00,,,0.00,,2013-04-02 11:52:00,
2013-04-02 06:01:00,41.0,37.0,29.96,WSW,249,0.0,0.0,86,0.00,,,0.00,,2013-04-02 12:01:00,
2013-04-02 06:11:00,41.0,37.0,29.96,WSW,249,0.0,0.0,86,0.00,,,0.00,,2013-04-02 12:11:00,
2013-04-02 06:22:00,41.0,37.0,29.96,WSW,249,0.0,0.0,86,0.00,,,0.00,,2013-04-02 12:22:00,
2013-04-02 06:32:00,41.0,37.0,29.96,WSW,249,1.0,3.0,87,0.00,,,0.00,,2013-04-02 12:32:00,
2013-04-02 06:41:00,41.0,37.0,29.96,WSW,249,1.0,3.0,87,0.00,,,0.00,,2013-04-02 12:41:00,
2013-04-02 06:52:00,41.0,37.0,29.96,WSW,249,2.0,3.0,87,0.00,,,0.00,,2013-04-02 12:52:00,
2013-04-02 07:01:00,41.0,37.0,29.97,WSW,250,3.0,4.0,87,0.00,,,0.00,,2013-04-02 13:01:00,
2013-04-02 07:11:00,41.0,37.0,29.97,West,277,4.0,5.0,87,0.00,,,0.00,,2013-04-02 13:11:00,
2013-04-02 07:22:00,41.0,37.0,29.97,West,277,4.0,5.0,87,0.00,,,0.00,,2013-04-02 13:22:00,
2013-04-02 07:32:00,41.0,37.0,29.97,WNW,284,4.0,5.0,87,0.00,,,0.00,,2013-04-02 13:32:00,
2013-04-02 07:42:00,41.0,37.0,29.97,WNW,284,4.0,5.0,87,0.00,,,0.00,,2013-04-02 13:42:00,
2013-04-02 07:52:00,41.0,37.0,29.98,WNW,284,2.0,4.0,87,0.00,,,0.00,,2013-04-02 13:52:00,
2013-04-02 08:01:00,40.0,37.0,29.98,West,275,3.0,6.0,88,0.00,,,0.00,,2013-04-02 14:01:00,
2013-04-02 08:11:00,40.0,37.0,29.98,West,275,3.0,6.0,88,0.00,,,0.00,,2013-04-02 14:11:00,
2013-04-02 08:22:00,40.0,37.0,29.99,West,276,5.0,8.0,88,0.00,,,0.00,,2013-04-02 14:22:00,
2013-04-02 08:32:00,40.0,37.0,29.99,West,276,6.0,9.0,88,0.00,,,0.00,,2013-04-02 14:32:00,
2013-04-02 08:42:00,40.0,37.0,29.99,West,276,6.0,9.0,88,0.00,,,0.00,,2013-04-02 14:42:00,
2013-04-02 08:52:00,40.0,37.0,29.99,West,266,8.0,11.0,88,0.00,,,0.00,,2013-04-02 14:52:00,
2013-04-02 09:01:00,41.0,38.0,29.99,WSW,253,7.0,10.0,88,0.00,,,0.00,,2013-04-02 15:01:00,
2013-04-02 09:11:00,41.0,38.0,29.99,WSW,253,7.0,10.0,88,0.00,,,0.00,,2013-04-02 15:11:00,
2013-04-02 09:21:00,40.0,37.0,30.00,SW,227,6.0,8.0,88,0.00,,,0.00,,2013-04-02 15:21:00,
2013-04-02 09:33:00,41.0,37.0,30.00,West,261,5.0,10.0,87,0.00,,,0.00,,2013-04-02 15:33:00,
2013-04-02 09:42:00,41.0,37.0,30.00,West,261,5.0,10.0,87,0.00,,,0.00,,2013-04-02 15:42:00,
2013-04-02 09:55:00,42.0,38.0,30.00,WSW,254,7.0,9.0,85,0.00,,,0.00,,2013-04-02 15:55:00,
2013-04-02 10:02:00,41.0,37.0,30.00,West,265,6.0,9.0,85,0.00,,,0.00,,2013-04-02 16:02:00,
2013-04-02 10:12:00,41.0,37.0,30.00,West,265,6.0,9.0,85,0.00,,,0.00,,2013-04-02 16:12:00,
2013-04-02 10:23:00,42.0,37.0,30.01,SW,222,6.0,10.0,83,0.00,,,0.00,,2013-04-02 16:23:00,
2013-04-02 10:42:00,43.0,37.0,30.01,WSW,238,7.0,11.0,80,0.00,,,0.00,,2013-04-02 16:42:00,
2013-04-02 10:53:00,42.0,37.0,30.01,WSW,238,6.0,9.0,82,0.00,,,0.00,,2013-04-02 16:53:00,
2013-04-02 11:02:00,44.0,38.0,30.01,WSW,243,10.0,13.0,79,0.00,,,0.00,,2013-04-02 17:02:00,
2013-04-02 11:12:00,44.0,38.0,30.01,WSW,243,10.0,13.0,79,0.00,,,0.00,,2013-04-02 17:12:00,
2013-04-02 11:23:00,44.0,38.0,30.02,SW,232,7.0,10.0,78,0.00,,,0.00,,2013-04-02 17:23:00,
2013-04-02 11:33:00,44.0,38.0,30.02,WSW,238,6.0,11.0,78,0.00,,,0.00,,2013-04-02 17:33:00,
2013-04-02 11:42:00,44.0,38.0,30.02,WSW,238,6.0,11.0,78,0.00,,,0.00,,2013-04-02 17:42:00,
2013-04-02 11:54:00,45.0,37.0,30.02,WNW,286,9.0,11.0,73,0.00,,,0.00,,2013-04-02 17:54:00,
2013-04-02 12:02:00,45.0,38.0,30.03,WNW,294,9.0,12.0,75,0.00,,,0.00,,2013-04-02 18:02:00,
2013-04-02 12:12:00,45.0,38.0,30.03,WNW,294,9.0,12.0,75,0.00,,,0.00,,2013-04-02 18:12:00,
2013-04-02 12:22:00,47.0,37.0,30.03,WNW,302,6.0,13.0,69,0.00,,,0.00,,2013-04-02 18:22:00,
2013-04-02 12:32:00,48.0,38.0,30.03,NW,304,6.0,10.0,68,0.00,,,0.00,,2013-04-02 18:32:00,
2013-04-02 12:42:00,48.0,38.0,30.03,NW,304,6.0,10.0,68,0.00,,,0.00,,2013-04-02 18:42:00,
2013-04-02 12:54:00,49.0,38.0,30.03,WNW,301,8.0,13.0,66,0.00,,,0.00,,2013-04-02 18:54:00,
2013-04-02 13:02:00,49.0,39.0,30.02,West,264,6.0,11.0,67,0.00,,,0.00,,2013-04-02 19:02:00,
2013-04-02 13:12:00,49.0,39.0,30.02,West,264,6.0,11.0,67,0.00,,,0.00,,2013-04-02 19:12:00,
2013-04-02 13:22:00,50.0,37.0,30.02,NW,307,6.0,12.0,60,0.00,,,0.00,,2013-04-02 19:22:00,
2013-04-02 13:31:00,50.0,38.0,30.01,West,260,6.0,13.0,63,0.00,,,0.00,,2013-04-02 19:31:00,
2013-04-02 13:42:00,50.0,38.0,30.01,West,260,6.0,13.0,63,0.00,,,0.00,,2013-04-02 19:42:00,
2013-04-02 13:54:00,51.0,37.0,30.01,NNW,331,7.0,13.0,58,0.00,,,0.00,,2013-04-02 19:54:00,
2013-04-02 14:02:00,52.0,36.0,30.01,NW,317,7.0,11.0,54,0.00,,,0.00,,2013-04-02 20:02:00,
2013-04-02 14:11:00,52.0,36.0,30.01,NW,317,7.0,11.0,54,0.00,,,0.00,,2013-04-02 20:11:00,
2013-04-02 14:21:00,52.0,36.0,30.01,WNW,282,9.0,14.0,54,0.00,,,0.00,,2013-04-02 20:21:00,
2013-04-02 14:32:00,54.0,35.0,30.01,NNW,333,8.0,12.0,49,0.00,,,0.00,,2013-04-02 20:32:00,
2013-04-02 14:42:00,54.0,35.0,30.01,NNW,333,8.0,12.0,49,0.00,,,0.00,,2013-04-02 20:42:00,
2013-04-02 14:54:00,54.0,35.0,30.01,NNW,333,8.0,12.0,49,0.00,,,0.00,,2013-04-02 20:54:00,
2013-04-02 15:02:00,53.0,36.0,30.00,NW,310,4.0,11.0,52,0.00,,,0.00,,2013-04-02 21:02:00,
2013-04-02 15:11:00,53.0,36.0,30.00,NW,310,4.0,11.0,52,0.00,,,0.00,,2013-04-02 21:11:00,
2013-04-02 15:22:00,54.0,35.0,30.00,West,263,7.0,12.0,48,0.00,,,0.00,,2013-04-02 21:22:00,
2013-04-02 15:42:00,55.0,35.0,30.00,SW,227,6.0,13.0,46,0.00,,,0.00,,2013-04-02 21:42:00,
2013-04-02 15:55:00,55.0,33.0,29.99,SW,220,6.0,13.0,43,0.00,,,0.00,,2013-04-02 21:55:00,
2013-04-02 16:02:00,55.0,32.0,29.99,WSW,244,5.0,12.0,41,0.00,,,0.00,,2013-04-02 22:02:00,
2013-04-02 16:12:00,55.0,32.0,29.99,WSW,244,5.0,12.0,41,0.00,,,0.00,,2013-04-02 22:12:00,
2013-04-02 16:22:00,56.0,34.0,29.99,WSW,251,7.0,13.0,43,0.00,,,0.00,,2013-04-02 22:22:00,
2013-04-02 16:32:00,56.0,31.0,29.99,SW,233,9.0,15.0,38,0.00,,,0.00,,2013-04-02 22:32:00,
2013-04-02 16:42:00,56.0,31.0,29.99,SW,233,9.0,15.0,38,0.00,,,0.00,,2013-04-02 22:42:00,
2013-04-02 16:53:00,56.0,31.0,29.99,SSW,204,7.0,15.0,39,0.00,,,0.00,,2013-04-02 22:53:00,
2013-04-02 17:02:00,55.0,30.0,29.99,West,270,8.0,13.0,38,0.00,,,0.00,,2013-04-02 23:02:00,
2013-04-02 17:12:00,55.0,29.0,29.99,SW,229,11.0,16.0,36,0.00,,,0.00,,2013-04-02 23:12:00,
2013-04-02 17:22:00,55.0,29.0,29.99,SW,229,11.0,16.0,36,0.00,,,0.00,,2013-04-02 23:22:00,
2013-04-02 17:32:00,56.0,28.0,29.99,WNW,290,6.0,13.0,34,0.00,,,0.00,,2013-04-02 23:32:00,
2013-04-02 17:42:00,56.0,28.0,29.99,WNW,290,6.0,13.0,34,0.00,,,0.00,,2013-04-02 23:42:00,
2013-04-02 17:53:00,56.0,28.0,29.99,WSW,242,7.0,15.0,34,0.00,,,0.00,,2013-04-02 23:53:00,
2013-04-02 18:01:00,56.0,26.0,29.99,West,260,8.0,14.0,31,0.00,,,0.00,,2013-04-03 00:01:00,
2013-04-02 18:12:00,56.0,26.0,29.99,West,260,8.0,14.0,31,0.00,,,0.00,,2013-04-03 00:12:00,
2013-04-02 18:22:00,56.0,24.0,29.99,WNW,290,7.0,12.0,29,0.00,,,0.00,,2013-04-03 00:22:00,
2013-04-02 18:32:00,56.0,24.0,29.99,WSW,247,6.0,11.0,29,0.00,,,0.00,,2013-04-03 00:32:00,
2013-04-02 18:43:00,56.0,24.0,29.99,WSW,247,6.0,11.0,29,0.00,,,0.00,,2013-04-03 00:43:00,
2013-04-02 18:54:00,55.0,23.0,29.99,West,262,5.0,12.0,29,0.00,,,0.00,,2013-04-03 00:54:00,
2013-04-02 19:02:00,55.0,25.0,29.99,West,281,5.0,11.0,31,0.00,,,0.00,,2013-04-03 01:02:00,
2013-04-02 19:11:00,55.0,25.0,29.99,West,281,5.0,11.0,31,0.00,,,0.00,,2013-04-03 01:11:00,
2013-04-02 19:21:00,55.0,24.0,29.99,West,264,6.0,11.0,30,0.00,,,0.00,,2013-04-03 01:21:00,
2013-04-02 19:32:00,55.0,26.0,29.99,West,261,5.0,9.0,33,0.00,,,0.00,,2013-04-03 01:32:00,
2013-04-02 19:42:00,55.0,26.0,29.99,West,261,5.0,9.0,33,0.00,,,0.00,,2013-04-03 01:42:00,
2013-04-02 19:53:00,52.0,26.0,30.00,WNW,283,5.0,9.0,36,0.00,,,0.00,,2013-04-03 01:53:00,
2013-04-02 20:02:00,51.0,26.0,30.00,WNW,286,4.0,7.0,37,0.00,,,0.00,,2013-04-03 02:02:00,
2013-04-02 20:11:00,51.0,26.0,30.00,WNW,286,4.0,7.0,37,0.00,,,0.00,,2013-04-03 02:11:00,
2013-04-02 20:22:00,51.0,26.0,30.00,WNW,286,4.0,7.0,37,0.00,,,0.00,,2013-04-03 02:22:00,
2013-04-02 20:32:00,51.0,26.0,30.00,WNW,286,4.0,7.0,37,0.00,,,0.00,,2013-04-03 02:32:00,
2013-04-02 21:04:00,49.0,26.0,30.00,WSW,254,5.0,7.0,40,0.00,,,0.00,,2013-04-03 03:04:00,
2013-04-02 21:13:00,49.0,26.0,30.00,WSW,254,5.0,7.0,40,0.00,,,0.00,,2013-04-03 03:13:00,
2013-04-02 21:22:00,48.0,30.0,30.01,WSW,248,3.0,9.0,50,0.00,,,0.00,,2013-04-03 03:22:00,
2013-04-02 21:34:00,48.0,32.0,30.01,WSW,250,7.0,12.0,53,0.00,,,0.00,,2013-04-03 03:34:00,
2013-04-02 21:43:00,48.0,32.0,30.01,WSW,250,7.0,12.0,53,0.00,,,0.00,,2013-04-03 03:43:00,
2013-04-02 21:53:00,48.0,33.0,30.01,WSW,250,7.0,10.0,55,0.00,,,0.00,,2013-04-03 03:53:00,
2013-04-02 22:02:00,48.0,34.0,30.02,SW,229,6.0,13.0,58,0.00,,,0.00,,2013-04-03 04:02:00,
2013-04-02 22:12:00,48.0,34.0,30.02,SW,229,6.0,13.0,58,0.00,,,0.00,,2013-04-03 04:12:00,
2013-04-02 22:23:00,48.0,34.0,30.02,SW,236,8.0,13.0,58,0.00,,,0.00,,2013-04-03 04:23:00,
2013-04-02 22:32:00,48.0,34.0,30.02,SW,225,6.0,14.0,57,0.00,,,0.00,,2013-04-03 04:32:00,
2013-04-02 22:42:00,48.0,34.0,30.02,SW,225,6.0,14.0,57,0.00,,,0.00,,2013-04-03 04:42:00,
2013-04-02 22:53:00,48.0,34.0,30.03,WSW,242,5.0,10.0,57,0.00,,,0.00,,2013-04-03 04:53:00,
2013-04-02 23:02:00,49.0,33.0,30.03,SW,224,13.0,19.0,54,0.00,,,0.00,,2013-04-03 05:02:00,
2013-04-02 23:12:00,49.0,33.0,30.03,SW,224,13.0,19.0,54,0.00,,,0.00,,2013-04-03 05:12:00,
2013-04-02 23:22:00,48.0,31.0,30.03,WSW,254,10.0,16.0,52,0.00,,,0.00,,2013-04-03 05:22:00,
2013-04-02 23:32:00,48.0,30.0,30.03,WSW,254,10.0,16.0,49,0.00,,,0.00,,2013-04-03 05:32:00,
2013-04-02 23:41:00,48.0,30.0,30.03,WSW,254,10.0,16.0,49,0.00,,,0.00,,2013-04-03 05:41:00,
2013-04-02 23:52:00,47.0,29.0,30.03,West,261,7.0,14.0,50,0.00,,,0.00,,2013-04-03 05:52:00,